Time,TemperatureF,DewpointF,PressureIn,WindDirection,WindDirectionDegrees,WindSpeedMPH,WindSpeedGustMPH,Humidity,HourlyPrecipIn,Conditions,Clouds,dailyrainin,SoftwareType,DateUTC
2014-01-28 00:01:00,-2.6,-13.7,30.55,WNW,299,0.0,0.0,58,0.00,,,0.00,WeatherCatV1.23B16,2014-01-28 05:01:00,
2014-01-28 00:02:00,-2.6,-13.7,30.55,WNW,299,0.0,0.0,58,0.00,,,0.00,WeatherCatV1.23B16,2014-01-28 05:02:00,
2014-01-28 00:04:00,-2.8,-13.9,30.55,WNW,299,1.0,3.0,58,0.00,,,0.00,WeatherCatV1.23B16,2014-01-28 05:04:00,
2014-01-28 00:05:00,-2.8,-13.9,30.55,WNW,299,0.0,1.0,58,0.00,,,0.00,WeatherCatV1.23B16,2014-01-28 05:05:00,
2014-01-28 00:10:00,-2.8,-13.9,30.55,WNW,299,0.0,0.0,58,0.00,,,0.00,WeatherCatV1.23B16,2014-01-28 05:10:00,
2014-01-28 00:15:00,-3.0,-14.1,30.55,WNW,299,0.0,0.0,58,0.00,,,0.00,WeatherCatV1.23B16,2014-01-28 05:15:00,
2014-01-28 00:21:00,-3.2,-14.2,30.55,NW,304,0.0,2.0,58,0.00,,,0.00,WeatherCatV1.23B16,2014-01-28 05:21:00,
2014-01-28 00:26:00,-3.2,-13.9,30.55,NW,304,0.0,0.0,59,0.00,,,0.00,WeatherCatV1.23B16,2014-01-28 05:26:00,
2014-01-28 00:31:00,-3.2,-13.9,30.55,North,9,1.0,3.0,59,0.00,,,0.00,WeatherCatV1.23B16,2014-01-28 05:31:00,
2014-01-28 00:36:00,-3.4,-14.1,30.55,NW,317,0.0,4.0,59,0.00,,,0.00,WeatherCatV1.23B16,2014-01-28 05:36:00,
2014-01-28 00:41:00,-3.4,-14.1,30.55,NW,317,0.0,0.0,59,0.00,,,0.00,WeatherCatV1.23B16,2014-01-28 05:41:00,
2014-01-28 00:47:00,-3.4,-13.8,30.55,NW,317,2.0,3.0,60,0.00,,,0.00,WeatherCatV1.23B16,2014-01-28 05:47:00,
2014-01-28 00:52:00,-3.4,-14.1,30.55,NW,317,0.0,2.0,59,0.00,,,0.00,WeatherCatV1.23B16,2014-01-28 05:52:00,
2014-01-28 00:57:00,-3.6,-14.0,30.55,NW,317,0.0,0.0,60,0.00,,,0.00,WeatherCatV1.23B16,2014-01-28 05:57:00,
2014-01-28 01:02:00,-3.6,-14.0,30.55,NW,317,0.0,2.0,60,0.00,,,0.00,WeatherCatV1.23B16,2014-01-28 06:02:00,
2014-01-28 01:07:00,-3.6,-14.0,30.55,NW,317,1.0,1.0,60,0.00,,,0.00,WeatherCatV1.23B16,2014-01-28 06:07:00,
2014-01-28 01:13:00,-3.6,-14.0,30.55,NW,317,0.0,0.0,60,0.00,,,0.00,WeatherCatV1.23B16,2014-01-28 06:13:00,
2014-01-28 01:18:00,-3.8,-14.1,30.54,NW,317,0.0,0.0,60,0.00,,,0.00,WeatherCatV1.23B16,2014-01-28 06:18:00,
2014-01-28 01:23:00,-4.1,-14.1,30.54,NW,317,0.0,0.0,61,0.00,,,0.00,WeatherCatV1.23B16,2014-01-28 06:23:00,
2014-01-28 01:28:00,-4.1,-14.1,30.54,NW,317,0.0,2.0,61,0.00,,,0.00,WeatherCatV1.23B16,2014-01-28 06:28:00,
2014-01-28 01:33:00,-4.1,-14.1,30.54,NW,317,0.0,0.0,61,0.00,,,0.00,WeatherCatV1.23B16,2014-01-28 06:33:00,
2014-01-28 01:39:00,-4.3,-14.3,30.54,NW,317,0.0,0.0,61,0.00,,,0.00,WeatherCatV1.23B16,2014-01-28 06:39:00,
2014-01-28 01:44:00,-4.3,-14.0,30.54,NW,317,0.0,0.0,62,0.00,,,0.00,WeatherCatV1.23B16,2014-01-28 06:44:00,
2014-01-28 01:49:00,-4.5,-14.5,30.54,NW,317,0.0,0.0,61,0.00,,,0.00,WeatherCatV1.23B16,2014-01-28 06:49:00,
2014-01-28 01:54:00,-4.7,-14.4,30.54,NW,317,0.0,0.0,62,0.00,,,0.00,WeatherCatV1.23B16,2014-01-28 06:54:00,
2014-01-28 01:59:00,-4.7,-14.4,30.54,NW,317,0.0,4.0,62,0.00,,,0.00,WeatherCatV1.23B16,2014-01-28 06:59:00,
2014-01-28 02:05:00,-4.7,-14.4,30.54,NW,317,0.0,0.0,62,0.00,,,0.00,WeatherCatV1.23B16,2014-01-28 07:05:00,
2014-01-28 02:10:00,-4.7,-14.4,30.54,NW,317,0.0,0.0,62,0.00,,,0.00,WeatherCatV1.23B16,2014-01-28 07:10:00,
2014-01-28 02:15:00,-4.9,-14.5,30.54,NW,317,0.0,0.0,62,0.00,,,0.00,WeatherCatV1.23B16,2014-01-28 07:15:00,
2014-01-28 02:20:00,-5.1,-14.7,30.54,NW,317,0.0,0.0,62,0.00,,,0.00,WeatherCatV1.23B16,2014-01-28 07:20:00,
2014-01-28 02:25:00,-5.4,-15.0,30.54,NW,317,0.0,0.0,62,0.00,,,0.00,WeatherCatV1.23B16,2014-01-28 07:25:00,
2014-01-28 02:31:00,-5.6,-15.2,30.54,NW,317,0.0,0.0,62,0.00,,,0.00,WeatherCatV1.23B16,2014-01-28 07:31:00,
2014-01-28 02:36:00,-5.8,-15.4,30.54,NW,317,0.0,0.0,62,0.00,,,0.00,WeatherCatV1.23B16,2014-01-28 07:36:00,
2014-01-28 02:41:00,-6.0,-15.6,30.54,NW,317,0.0,0.0,62,0.00,,,0.00,WeatherCatV1.23B16,2014-01-28 07:41:00,
2014-01-28 02:46:00,-6.3,-15.6,30.54,NW,317,0.0,0.0,63,0.00,,,0.00,WeatherCatV1.23B16,2014-01-28 07:46:00,
2014-01-28 02:51:00,-6.3,-15.6,30.54,NW,317,0.0,0.0,63,0.00,,,0.00,WeatherCatV1.23B16,2014-01-28 07:51:00,
2014-01-28 02:57:00,-6.5,-15.4,30.54,NW,317,0.0,0.0,64,0.00,,,0.00,WeatherCatV1.23B16,2014-01-28 07:57:00,
2014-01-28 03:02:00,-6.5,-15.4,30.55,NW,317,0.0,0.0,64,0.00,,,0.00,WeatherCatV1.23B16,2014-01-28 08:02:00,
2014-01-28 03:07:00,-6.7,-15.6,30.55,NW,317,0.0,0.0,64,0.00,,,0.00,WeatherCatV1.23B16,2014-01-28 08:07:00,
2014-01-28 03:12:00,-7.0,-15.9,30.55,NW,317,0.0,0.0,64,0.00,,,0.00,WeatherCatV1.23B16,2014-01-28 08:12:00,
2014-01-28 03:18:00,-7.0,-15.6,30.54,NW,317,0.0,0.0,65,0.00,,,0.00,WeatherCatV1.23B16,2014-01-28 08:18:00,
2014-01-28 03:23:00,-7.2,-15.8,30.54,NW,317,0.0,0.0,65,0.00,,,0.00,WeatherCatV1.23B16,2014-01-28 08:23:00,
2014-01-28 03:28:00,-7.4,-16.0,30.54,NW,317,0.0,0.0,65,0.00,,,0.00,WeatherCatV1.23B16,2014-01-28 08:28:00,
2014-01-28 03:33:00,-7.4,-15.7,30.56,NW,317,0.0,0.0,66,0.00,,,0.00,WeatherCatV1.23B16,2014-01-28 08:33:00,
2014-01-28 03:38:00,-7.4,-15.7,30.56,NW,317,0.0,0.0,66,0.00,,,0.00,WeatherCatV1.23B16,2014-01-28 08:38:00,
2014-01-28 03:44:00,-7.7,-16.0,30.56,NW,317,0.0,0.0,66,0.00,,,0.00,WeatherCatV1.23B16,2014-01-28 08:44:00,
2014-01-28 03:49:00,-7.7,-15.7,30.55,NW,317,0.0,0.0,67,0.00,,,0.00,WeatherCatV1.23B16,2014-01-28 08:49:00,
2014-01-28 03:54:00,-7.9,-15.9,30.55,NW,317,0.0,0.0,67,0.00,,,0.00,WeatherCatV1.23B16,2014-01-28 08:54:00,
2014-01-28 03:59:00,-7.9,-15.9,30.53,NW,317,0.0,0.0,67,0.00,,,0.00,WeatherCatV1.23B16,2014-01-28 08:59:00,
2014-01-28 04:04:00,-7.9,-15.6,30.53,NW,317,0.0,0.0,68,0.00,,,0.00,WeatherCatV1.23B16,2014-01-28 09:04:00,
2014-01-28 04:10:00,-7.7,-15.4,30.53,NW,317,0.0,0.0,68,0.00,,,0.00,WeatherCatV1.23B16,2014-01-28 09:10:00,
2014-01-28 04:15:00,-7.7,-15.4,30.54,NW,317,0.0,0.0,68,0.00,,,0.00,WeatherCatV1.23B16,2014-01-28 09:15:00,
2014-01-28 04:20:00,-7.9,-15.6,30.54,NW,317,0.0,0.0,68,0.00,,,0.00,WeatherCatV1.23B16,2014-01-28 09:20:00,
2014-01-28 04:25:00,-7.9,-15.3,30.54,NW,317,0.0,0.0,69,0.00,,,0.00,WeatherCatV1.23B16,2014-01-28 09:25:00,
2014-01-28 04:30:00,-7.9,-15.6,30.55,NW,317,0.0,0.0,68,0.00,,,0.00,WeatherCatV1.23B16,2014-01-28 09:30:00,
2014-01-28 04:36:00,-7.9,-15.3,30.55,NW,317,0.0,0.0,69,0.00,,,0.00,WeatherCatV1.23B16,2014-01-28 09:36:00,
2014-01-28 04:41:00,-7.9,-15.3,30.55,NW,317,0.0,0.0,69,0.00,,,0.00,WeatherCatV1.23B16,2014-01-28 09:41:00,
2014-01-28 04:46:00,-7.7,-15.1,30.55,NW,317,0.0,0.0,69,0.00,,,0.00,WeatherCatV1.23B16,2014-01-28 09:46:00,
2014-01-28 04:51:00,-7.7,-14.8,30.55,NW,317,0.0,0.0,70,0.00,,,0.00,WeatherCatV1.23B16,2014-01-28 09:51:00,
2014-01-28 04:56:00,-7.7,-14.8,30.55,NW,317,0.0,0.0,70,0.00,,,0.00,WeatherCatV1.23B16,2014-01-28 09:56:00,
2014-01-28 05:02:00,-7.9,-15.0,30.55,NW,317,0.0,0.0,70,0.00,,,0.00,WeatherCatV1.23B16,2014-01-28 10:02:00,
2014-01-28 05:07:00,-7.9,-15.0,30.55,NW,317,0.0,0.0,70,0.00,,,0.00,WeatherCatV1.23B16,2014-01-28 10:07:00,
2014-01-28 05:12:00,-7.9,-15.0,30.55,NW,317,0.0,0.0,70,0.00,,,0.00,WeatherCatV1.23B16,2014-01-28 10:12:00,
2014-01-28 05:17:00,-7.9,-15.0,30.55,NW,317,0.0,0.0,70,0.00,,,0.00,WeatherCatV1.23B16,2014-01-28 10:17:00,
2014-01-28 05:22:00,-7.9,-14.8,30.55,NW,317,0.0,0.0,71,0.00,,,0.00,WeatherCatV1.23B16,2014-01-28 10:22:00,
2014-01-28 05:28:00,-7.9,-14.8,30.55,NW,317,0.0,0.0,71,0.00,,,0.00,WeatherCatV1.23B16,2014-01-28 10:28:00,
2014-01-28 05:33:00,-7.7,-14.6,30.56,NW,317,0.0,0.0,71,0.00,,,0.00,WeatherCatV1.23B16,2014-01-28 10:33:00,
2014-01-28 05:38:00,-7.7,-14.6,30.56,NW,317,0.0,0.0,71,0.00,,,0.00,WeatherCatV1.23B16,2014-01-28 10:38:00,
2014-01-28 05:43:00,-7.7,-14.6,30.56,NW,317,0.0,0.0,71,0.00,,,0.00,WeatherCatV1.23B16,2014-01-28 10:43:00,
2014-01-28 05:48:00,-7.7,-14.6,30.55,NW,317,0.0,0.0,71,0.00,,,0.00,WeatherCatV1.23B16,2014-01-28 10:48:00,
2014-01-28 05:54:00,-7.7,-14.6,30.55,NW,317,0.0,0.0,71,0.00,,,0.00,WeatherCatV1.23B16,2014-01-28 10:54:00,
2014-01-28 05:59:00,-7.7,-14.6,30.55,NW,317,0.0,0.0,71,0.00,,,0.00,WeatherCatV1.23B16,2014-01-28 10:59:00,
2014-01-28 06:04:00,-7.7,-14.6,30.55,NW,317,0.0,0.0,71,0.00,,,0.00,WeatherCatV1.23B16,2014-01-28 11:04:00,
2014-01-28 06:09:00,-7.2,-14.1,30.55,NW,317,0.0,0.0,71,0.00,,,0.00,WeatherCatV1.23B16,2014-01-28 11:09:00,
2014-01-28 06:14:00,-7.2,-14.1,30.55,NW,317,0.0,0.0,71,0.00,,,0.00,WeatherCatV1.23B16,2014-01-28 11:14:00,
2014-01-28 06:20:00,-7.2,-14.1,30.55,NW,317,0.0,0.0,71,0.00,,,0.00,WeatherCatV1.23B16,2014-01-28 11:20:00,
2014-01-28 06:25:00,-7.2,-14.1,30.55,NW,317,0.0,0.0,71,0.00,,,0.00,WeatherCatV1.23B16,2014-01-28 11:25:00,
2014-01-28 06:30:00,-7.4,-14.3,30.56,NW,317,0.0,0.0,71,0.00,,,0.00,WeatherCatV1.23B16,2014-01-28 11:30:00,
2014-01-28 06:35:00,-7.4,-14.3,30.56,NW,317,0.0,0.0,71,0.00,,,0.00,WeatherCatV1.23B16,2014-01-28 11:35:00,
2014-01-28 06:40:00,-7.7,-14.6,30.56,NW,317,0.0,0.0,71,0.00,,,0.00,WeatherCatV1.23B16,2014-01-28 11:40:00,
2014-01-28 06:46:00,-7.7,-14.6,30.57,NW,317,0.0,0.0,71,0.00,,,0.00,WeatherCatV1.23B16,2014-01-28 11:46:00,
2014-01-28 06:51:00,-7.7,-14.6,30.57,NW,317,0.0,0.0,71,0.00,,,0.00,WeatherCatV1.23B16,2014-01-28 11:51:00,
2014-01-28 06:56:00,-7.9,-14.8,30.57,NW,317,0.0,0.0,71,0.00,,,0.00,WeatherCatV1.23B16,2014-01-28 11:56:00,
2014-01-28 07:01:00,-7.7,-14.3,30.57,NW,317,0.0,0.0,72,0.00,,,0.00,WeatherCatV1.23B16,2014-01-28 12:01:00,
2014-01-28 07:06:00,-7.4,-14.0,30.57,NW,317,0.0,0.0,72,0.00,,,0.00,WeatherCatV1.23B16,2014-01-28 12:06:00,
2014-01-28 07:12:00,-7.2,-13.8,30.57,NW,317,0.0,0.0,72,0.00,,,0.00,WeatherCatV1.23B16,2014-01-28 12:12:00,
2014-01-28 07:17:00,-7.2,-13.8,30.57,NW,317,0.0,0.0,72,0.00,,,0.00,WeatherCatV1.23B16,2014-01-28 12:17:00,
2014-01-28 07:22:00,-7.0,-13.3,30.57,NW,317,0.0,0.0,73,0.00,,,0.00,WeatherCatV1.23B16,2014-01-28 12:22:00,
2014-01-28 07:27:00,-6.5,-12.9,30.57,NW,317,0.0,0.0,73,0.00,,,0.00,WeatherCatV1.23B16,2014-01-28 12:27:00,
2014-01-28 07:32:00,-6.3,-12.7,30.57,NW,317,0.0,0.0,73,0.00,,,0.00,WeatherCatV1.23B16,2014-01-28 12:32:00,
2014-01-28 07:38:00,-6.0,-12.6,30.57,NW,317,0.0,0.0,72,0.00,,,0.00,WeatherCatV1.23B16,2014-01-28 12:38:00,
2014-01-28 07:43:00,-5.8,-12.4,30.57,NW,317,0.0,0.0,72,0.00,,,0.00,WeatherCatV1.23B16,2014-01-28 12:43:00,
2014-01-28 07:48:00,-5.8,-12.4,30.57,NW,317,0.0,0.0,72,0.00,,,0.00,WeatherCatV1.23B16,2014-01-28 12:48:00,
2014-01-28 07:53:00,-5.6,-12.2,30.57,NW,317,0.0,0.0,72,0.00,,,0.00,WeatherCatV1.23B16,2014-01-28 12:53:00,
2014-01-28 07:58:00,-5.4,-12.3,30.57,NW,317,0.0,0.0,71,0.00,,,0.00,WeatherCatV1.23B16,2014-01-28 12:58:00,
2014-01-28 08:04:00,-5.4,-12.3,30.58,NW,317,0.0,0.0,71,0.00,,,0.00,WeatherCatV1.23B16,2014-01-28 13:04:00,
2014-01-28 08:09:00,-5.1,-12.3,30.58,NW,317,0.0,0.0,70,0.00,,,0.00,WeatherCatV1.23B16,2014-01-28 13:09:00,
2014-01-28 08:14:00,-4.9,-12.1,30.58,NW,317,0.0,0.0,70,0.00,,,0.00,WeatherCatV1.23B16,2014-01-28 13:14:00,
2014-01-28 08:19:00,-4.7,-11.9,30.58,NW,317,0.0,2.0,70,0.00,,,0.00,WeatherCatV1.23B16,2014-01-28 13:19:00,
2014-01-28 08:24:00,-4.7,-12.2,30.58,NW,317,0.0,2.0,69,0.00,,,0.00,WeatherCatV1.23B16,2014-01-28 13:24:00,
2014-01-28 08:30:00,-4.5,-12.0,30.57,SSW,202,0.0,4.0,69,0.00,,,0.00,WeatherCatV1.23B16,2014-01-28 13:30:00,
2014-01-28 08:35:00,-4.3,-11.9,30.57,SSW,200,0.0,0.0,69,0.00,,,0.00,WeatherCatV1.23B16,2014-01-28 13:35:00,
2014-01-28 08:40:00,-4.1,-11.9,30.57,WNW,287,1.0,4.0,68,0.00,,,0.00,WeatherCatV1.23B16,2014-01-28 13:40:00,
2014-01-28 08:45:00,-3.8,-11.7,30.56,WNW,287,0.0,2.0,68,0.00,,,0.00,WeatherCatV1.23B16,2014-01-28 13:45:00,
2014-01-28 08:50:00,-3.6,-11.5,30.56,WNW,287,0.0,1.0,68,0.00,,,0.00,WeatherCatV1.23B16,2014-01-28 13:50:00,
2014-01-28 08:56:00,-3.4,-11.6,30.56,SSW,204,3.0,3.0,67,0.00,,,0.00,WeatherCatV1.23B16,2014-01-28 13:56:00,
2014-01-28 09:01:00,-3.2,-11.7,30.57,WSW,258,0.0,1.0,66,0.00,,,0.00,WeatherCatV1.23B16,2014-01-28 14:01:00,
2014-01-28 09:06:00,-3.0,-11.5,30.57,WNW,285,3.0,3.0,66,0.00,,,0.00,WeatherCatV1.23B16,2014-01-28 14:06:00,
2014-01-28 09:11:00,-2.8,-11.6,30.57,West,272,3.0,5.0,65,0.00,,,0.00,WeatherCatV1.23B16,2014-01-28 14:11:00,
2014-01-28 09:16:00,-2.8,-11.9,30.58,West,262,0.0,1.0,64,0.00,,,0.00,WeatherCatV1.23B16,2014-01-28 14:16:00,
2014-01-28 09:22:00,-2.6,-11.7,30.58,WSW,244,0.0,2.0,64,0.00,,,0.00,WeatherCatV1.23B16,2014-01-28 14:22:00,
2014-01-28 09:27:00,-2.3,-11.4,30.58,West,268,0.0,0.0,64,0.00,,,0.00,WeatherCatV1.23B16,2014-01-28 14:27:00,
2014-01-28 09:32:00,-2.3,-11.8,30.58,SW,214,2.0,3.0,63,0.00,,,0.00,WeatherCatV1.23B16,2014-01-28 14:32:00,
2014-01-28 09:37:00,-2.1,-11.6,30.58,WSW,250,0.0,3.0,63,0.00,,,0.00,WeatherCatV1.23B16,2014-01-28 14:37:00,
2014-01-28 09:42:00,-1.9,-11.4,30.58,SSW,209,0.0,3.0,63,0.00,,,0.00,WeatherCatV1.23B16,2014-01-28 14:42:00,
2014-01-28 09:48:00,-1.7,-11.2,30.58,West,279,0.0,2.0,63,0.00,,,0.00,WeatherCatV1.23B16,2014-01-28 14:48:00,
2014-01-28 09:53:00,-1.3,-11.1,30.58,SSW,210,0.0,5.0,62,0.00,,,0.00,WeatherCatV1.23B16,2014-01-28 14:53:00,
2014-01-28 09:58:00,-1.1,-10.9,30.58,SSW,209,2.0,4.0,62,0.00,,,0.00,WeatherCatV1.23B16,2014-01-28 14:58:00,
2014-01-28 10:03:00,-0.9,-11.1,30.57,SSW,204,2.0,2.0,61,0.00,,,0.00,WeatherCatV1.23B16,2014-01-28 15:03:00,
2014-01-28 10:08:00,-0.7,-10.6,30.57,West,279,2.0,4.0,62,0.00,,,0.00,WeatherCatV1.23B16,2014-01-28 15:08:00,
2014-01-28 10:14:00,-0.3,-10.5,30.57,West,279,0.0,2.0,61,0.00,,,0.00,WeatherCatV1.23B16,2014-01-28 15:14:00,
2014-01-28 10:19:00,-0.1,-10.6,30.56,West,278,2.0,4.0,60,0.00,,,0.00,WeatherCatV1.23B16,2014-01-28 15:19:00,
2014-01-28 10:24:00,0.3,-9.9,30.56,West,278,0.0,0.0,61,0.00,,,0.00,WeatherCatV1.23B16,2014-01-28 15:24:00,
2014-01-28 10:29:00,0.6,-10.0,30.56,WNW,290,2.0,3.0,60,0.00,,,0.00,WeatherCatV1.23B16,2014-01-28 15:29:00,
2014-01-28 10:34:00,1.0,-10.3,30.56,WSW,243,0.0,3.0,58,0.00,,,0.00,WeatherCatV1.23B16,2014-01-28 15:34:00,
2014-01-28 10:40:00,1.2,-10.4,30.56,SSW,193,2.0,3.0,57,0.00,,,0.00,WeatherCatV1.23B16,2014-01-28 15:40:00,
2014-01-28 10:45:00,1.6,-10.1,30.56,SSW,193,0.0,4.0,57,0.00,,,0.00,WeatherCatV1.23B16,2014-01-28 15:45:00,
2014-01-28 10:50:00,1.8,-10.2,30.56,West,273,4.0,5.0,56,0.00,,,0.00,WeatherCatV1.23B16,2014-01-28 15:50:00,
2014-01-28 10:55:00,2.0,-10.4,30.56,West,273,2.0,3.0,55,0.00,,,0.00,WeatherCatV1.23B16,2014-01-28 15:55:00,
2014-01-28 11:00:00,2.2,-10.2,30.56,West,271,2.0,5.0,55,0.00,,,0.00,WeatherCatV1.23B16,2014-01-28 16:00:00,
2014-01-28 11:06:00,2.3,-10.5,30.56,WNW,287,2.0,2.0,54,0.00,,,0.00,WeatherCatV1.23B16,2014-01-28 16:06:00,
2014-01-28 11:11:00,2.7,-10.1,30.56,West,268,0.0,0.0,54,0.00,,,0.00,WeatherCatV1.23B16,2014-01-28 16:11:00,
2014-01-28 11:16:00,3.3,-9.6,30.56,West,268,0.0,3.0,54,0.00,,,0.00,WeatherCatV1.23B16,2014-01-28 16:16:00,
2014-01-28 11:21:00,3.9,-9.4,30.56,SSW,212,1.0,4.0,53,0.00,,,0.00,WeatherCatV1.23B16,2014-01-28 16:21:00,
2014-01-28 11:26:00,4.2,-9.1,30.56,SSW,212,2.0,2.0,53,0.00,,,0.00,WeatherCatV1.23B16,2014-01-28 16:26:00,
2014-01-28 11:32:00,4.8,-8.5,30.56,SSW,204,2.0,2.0,53,0.00,,,0.00,WeatherCatV1.23B16,2014-01-28 16:32:00,
2014-01-28 11:37:00,5.0,-9.1,30.56,West,262,1.0,3.0,51,0.00,,,0.00,WeatherCatV1.23B16,2014-01-28 16:37:00,
2014-01-28 11:42:00,5.5,-8.3,30.56,South,169,1.0,3.0,52,0.00,,,0.00,WeatherCatV1.23B16,2014-01-28 16:42:00,
2014-01-28 11:47:00,6.1,-8.1,30.56,WNW,287,0.0,1.0,51,0.00,,,0.00,WeatherCatV1.23B16,2014-01-28 16:47:00,
2014-01-28 11:52:00,6.5,-8.1,30.56,WNW,301,2.0,4.0,50,0.00,,,0.00,WeatherCatV1.23B16,2014-01-28 16:52:00,
2014-01-28 11:58:00,6.8,-7.8,30.56,WNW,289,0.0,2.0,50,0.00,,,0.00,WeatherCatV1.23B16,2014-01-28 16:58:00,
2014-01-28 12:03:00,7.0,-8.1,30.55,WNW,289,0.0,0.0,49,0.00,,,0.00,WeatherCatV1.23B16,2014-01-28 17:03:00,
2014-01-28 12:08:00,7.4,-8.1,30.55,WNW,285,2.0,3.0,48,0.00,,,0.00,WeatherCatV1.23B16,2014-01-28 17:08:00,
2014-01-28 12:13:00,7.4,-8.1,30.55,SSW,210,0.0,3.0,48,0.00,,,0.00,WeatherCatV1.23B16,2014-01-28 17:13:00,
2014-01-28 12:18:00,7.5,-8.0,30.54,SSE,164,0.0,4.0,48,0.00,,,0.00,WeatherCatV1.23B16,2014-01-28 17:18:00,
2014-01-28 12:24:00,7.7,-8.3,30.54,NW,311,2.0,7.0,47,0.00,,,0.00,WeatherCatV1.23B16,2014-01-28 17:24:00,
2014-01-28 12:29:00,8.1,-7.9,30.53,NW,324,3.0,4.0,47,0.00,,,0.00,WeatherCatV1.23B16,2014-01-28 17:29:00,
2014-01-28 12:34:00,8.2,-8.3,30.53,WSW,243,0.0,2.0,46,0.00,,,0.00,WeatherCatV1.23B16,2014-01-28 17:34:00,
2014-01-28 12:39:00,8.4,-8.1,30.53,SW,224,0.0,0.0,46,0.00,,,0.00,WeatherCatV1.23B16,2014-01-28 17:39:00,
2014-01-28 12:44:00,8.6,-9.3,30.52,SW,217,4.0,9.0,43,0.00,,,0.00,WeatherCatV1.23B16,2014-01-28 17:44:00,
2014-01-28 12:50:00,8.8,-10.0,30.52,WSW,246,1.0,11.0,41,0.00,,,0.00,WeatherCatV1.23B16,2014-01-28 17:50:00,
2014-01-28 12:55:00,8.6,-10.2,30.52,West,269,0.0,2.0,41,0.00,,,0.00,WeatherCatV1.23B16,2014-01-28 17:55:00,
2014-01-28 13:00:00,8.8,-9.6,30.50,WNW,295,0.0,2.0,42,0.00,,,0.00,WeatherCatV1.23B16,2014-01-28 18:00:00,
2014-01-28 13:05:00,9.1,-8.3,30.50,NW,305,4.0,8.0,44,0.00,,,0.00,WeatherCatV1.23B16,2014-01-28 18:05:00,
2014-01-28 13:10:00,9.3,-9.1,30.50,West,271,3.0,10.0,42,0.00,,,0.00,WeatherCatV1.23B16,2014-01-28 18:10:00,
2014-01-28 13:16:00,9.7,-8.7,30.49,NW,320,1.0,3.0,42,0.00,,,0.00,WeatherCatV1.23B16,2014-01-28 18:16:00,
2014-01-28 13:21:00,10.0,-8.5,30.49,WSW,250,2.0,4.0,42,0.00,,,0.00,WeatherCatV1.23B16,2014-01-28 18:21:00,
2014-01-28 13:26:00,10.2,-8.3,30.49,West,270,4.0,6.0,42,0.00,,,0.00,WeatherCatV1.23B16,2014-01-28 18:26:00,
2014-01-28 13:31:00,10.5,-8.0,30.49,WNW,283,0.0,1.0,42,0.00,,,0.00,WeatherCatV1.23B16,2014-01-28 18:31:00,
2014-01-28 13:36:00,10.9,-8.1,30.49,SW,228,2.0,5.0,41,0.00,,,0.00,WeatherCatV1.23B16,2014-01-28 18:36:00,
2014-01-28 13:42:00,11.0,-8.5,30.49,SSW,207,0.0,4.0,40,0.00,,,0.00,WeatherCatV1.23B16,2014-01-28 18:42:00,
2014-01-28 13:47:00,11.2,-8.4,30.49,WNW,295,3.0,10.0,40,0.00,,,0.00,WeatherCatV1.23B16,2014-01-28 18:47:00,
2014-01-28 13:52:00,11.6,-8.0,30.49,NNW,333,5.0,7.0,40,0.00,,,0.00,WeatherCatV1.23B16,2014-01-28 18:52:00,
2014-01-28 13:57:00,11.9,-7.2,30.49,WNW,299,2.0,6.0,41,0.00,,,0.00,WeatherCatV1.23B16,2014-01-28 18:57:00,
2014-01-28 14:02:00,11.9,-7.7,30.48,NNW,327,2.0,3.0,40,0.00,,,0.00,WeatherCatV1.23B16,2014-01-28 19:02:00,
2014-01-28 14:08:00,12.1,-7.5,30.48,NW,323,1.0,5.0,40,0.00,,,0.00,WeatherCatV1.23B16,2014-01-28 19:08:00,
2014-01-28 14:13:00,12.1,-7.5,30.48,WNW,286,3.0,7.0,40,0.00,,,0.00,WeatherCatV1.23B16,2014-01-28 19:13:00,
2014-01-28 14:18:00,11.9,-7.7,30.47,WSW,252,3.0,4.0,40,0.00,,,0.00,WeatherCatV1.23B16,2014-01-28 19:18:00,
2014-01-28 14:24:00,11.9,-6.7,30.47,NW,305,6.0,10.0,42,0.00,,,0.00,WeatherCatV1.23B16,2014-01-28 19:24:00,
2014-01-28 14:29:00,11.9,-6.7,30.46,NW,313,1.0,5.0,42,0.00,,,0.00,WeatherCatV1.23B16,2014-01-28 19:29:00,
2014-01-28 14:34:00,12.2,-6.9,30.46,SSW,203,3.0,4.0,41,0.00,,,0.00,WeatherCatV1.23B16,2014-01-28 19:34:00,
2014-01-28 14:39:00,12.4,-7.3,30.46,WSW,256,1.0,7.0,40,0.00,,,0.00,WeatherCatV1.23B16,2014-01-28 19:39:00,
2014-01-28 14:44:00,12.6,-7.1,30.46,WNW,289,1.0,4.0,40,0.00,,,0.00,WeatherCatV1.23B16,2014-01-28 19:44:00,
2014-01-28 14:50:00,12.6,-7.6,30.46,West,273,1.0,2.0,39,0.00,,,0.00,WeatherCatV1.23B16,2014-01-28 19:50:00,
2014-01-28 14:55:00,12.6,-6.1,30.46,West,281,2.0,7.0,42,0.00,,,0.00,WeatherCatV1.23B16,2014-01-28 19:55:00,
2014-01-28 15:00:00,12.6,-6.6,30.46,WNW,291,0.0,2.0,41,0.00,,,0.00,WeatherCatV1.23B16,2014-01-28 20:00:00,
2014-01-28 15:05:00,12.6,-7.1,30.46,NW,306,5.0,5.0,40,0.00,,,0.00,WeatherCatV1.23B16,2014-01-28 20:05:00,
2014-01-28 15:10:00,12.6,-6.6,30.46,West,280,0.0,5.0,41,0.00,,,0.00,WeatherCatV1.23B16,2014-01-28 20:10:00,
2014-01-28 15:16:00,12.8,-6.9,30.46,NW,313,9.0,9.0,40,0.00,,,0.00,WeatherCatV1.23B16,2014-01-28 20:16:00,
2014-01-28 15:21:00,12.9,-6.3,30.46,NW,325,0.0,4.0,41,0.00,,,0.00,WeatherCatV1.23B16,2014-01-28 20:21:00,
2014-01-28 15:26:00,12.8,-6.4,30.46,West,265,5.0,11.0,41,0.00,,,0.00,WeatherCatV1.23B16,2014-01-28 20:26:00,
2014-01-28 15:31:00,12.8,-6.4,30.46,SW,218,0.0,4.0,41,0.00,,,0.00,WeatherCatV1.23B16,2014-01-28 20:31:00,
2014-01-28 15:36:00,12.8,-6.9,30.46,NW,308,0.0,3.0,40,0.00,,,0.00,WeatherCatV1.23B16,2014-01-28 20:36:00,
2014-01-28 15:42:00,12.9,-6.8,30.46,WNW,298,3.0,4.0,40,0.00,,,0.00,WeatherCatV1.23B16,2014-01-28 20:42:00,
2014-01-28 15:47:00,13.1,-7.2,30.46,SW,224,3.0,6.0,39,0.00,,,0.00,WeatherCatV1.23B16,2014-01-28 20:47:00,
2014-01-28 15:52:00,12.9,-7.3,30.46,NNW,337,4.0,6.0,39,0.00,,,0.00,WeatherCatV1.23B16,2014-01-28 20:52:00,
2014-01-28 15:57:00,12.9,-7.3,30.46,WNW,292,0.0,5.0,39,0.00,,,0.00,WeatherCatV1.23B16,2014-01-28 20:57:00,
2014-01-28 16:02:00,12.8,-7.4,30.45,NW,318,5.0,9.0,39,0.00,,,0.00,WeatherCatV1.23B16,2014-01-28 21:02:00,
2014-01-28 16:08:00,12.8,-7.4,30.45,NW,310,4.0,5.0,39,0.00,,,0.00,WeatherCatV1.23B16,2014-01-28 21:08:00,
2014-01-28 16:13:00,12.8,-6.4,30.45,West,269,1.0,5.0,41,0.00,,,0.00,WeatherCatV1.23B16,2014-01-28 21:13:00,
2014-01-28 16:18:00,12.8,-6.9,30.46,WSW,254,1.0,4.0,40,0.00,,,0.00,WeatherCatV1.23B16,2014-01-28 21:18:00,
2014-01-28 16:23:00,12.8,-6.9,30.46,NW,317,1.0,4.0,40,0.00,,,0.00,WeatherCatV1.23B16,2014-01-28 21:23:00,
2014-01-28 16:28:00,12.8,-8.0,30.46,West,266,0.0,3.0,38,0.00,,,0.00,WeatherCatV1.23B16,2014-01-28 21:28:00,
2014-01-28 16:34:00,12.8,-7.4,30.46,WNW,300,7.0,7.0,39,0.00,,,0.00,WeatherCatV1.23B16,2014-01-28 21:34:00,
2014-01-28 16:39:00,12.6,-8.1,30.46,West,272,3.0,6.0,38,0.00,,,0.00,WeatherCatV1.23B16,2014-01-28 21:39:00,
2014-01-28 16:44:00,12.4,-7.8,30.45,West,272,3.0,7.0,39,0.00,,,0.00,WeatherCatV1.23B16,2014-01-28 21:44:00,
2014-01-28 16:49:00,12.4,-7.3,30.45,West,262,0.0,5.0,40,0.00,,,0.00,WeatherCatV1.23B16,2014-01-28 21:49:00,
2014-01-28 16:54:00,12.2,-8.0,30.45,West,281,0.0,2.0,39,0.00,,,0.00,WeatherCatV1.23B16,2014-01-28 21:54:00,
2014-01-28 17:00:00,12.1,-7.5,30.44,West,280,0.0,3.0,40,0.00,,,0.00,WeatherCatV1.23B16,2014-01-28 22:00:00,
2014-01-28 17:05:00,11.9,-7.7,30.44,West,281,0.0,3.0,40,0.00,,,0.00,WeatherCatV1.23B16,2014-01-28 22:05:00,
2014-01-28 17:10:00,11.7,-7.4,30.44,NW,310,0.0,5.0,41,0.00,,,0.00,WeatherCatV1.23B16,2014-01-28 22:10:00,
2014-01-28 17:15:00,11.6,-7.5,30.44,NW,316,0.0,1.0,41,0.00,,,0.00,WeatherCatV1.23B16,2014-01-28 22:15:00,
2014-01-28 17:20:00,11.4,-7.7,30.44,West,281,2.0,3.0,41,0.00,,,0.00,WeatherCatV1.23B16,2014-01-28 22:20:00,
2014-01-28 17:26:00,11.2,-7.4,30.44,WNW,290,1.0,3.0,42,0.00,,,0.00,WeatherCatV1.23B16,2014-01-28 22:26:00,
2014-01-28 17:31:00,11.2,-7.4,30.44,WNW,299,0.0,0.0,42,0.00,,,0.00,WeatherCatV1.23B16,2014-01-28 22:31:00,
2014-01-28 17:36:00,11.0,-7.6,30.44,WNW,291,0.0,2.0,42,0.00,,,0.00,WeatherCatV1.23B16,2014-01-28 22:36:00,
2014-01-28 17:41:00,10.9,-7.2,30.44,WNW,291,0.0,0.0,43,0.00,,,0.00,WeatherCatV1.23B16,2014-01-28 22:41:00,
2014-01-28 17:46:00,10.7,-7.3,30.44,SW,227,0.0,0.0,43,0.00,,,0.00,WeatherCatV1.23B16,2014-01-28 22:46:00,
2014-01-28 17:52:00,10.5,-7.5,30.44,WSW,251,0.0,2.0,43,0.00,,,0.00,WeatherCatV1.23B16,2014-01-28 22:52:00,
2014-01-28 17:57:00,10.4,-7.6,30.44,WSW,251,0.0,1.0,43,0.00,,,0.00,WeatherCatV1.23B16,2014-01-28 22:57:00,
2014-01-28 18:02:00,10.2,-7.3,30.45,NW,319,0.0,4.0,44,0.00,,,0.00,WeatherCatV1.23B16,2014-01-28 23:02:00,
2014-01-28 18:07:00,10.2,-6.9,30.45,NW,319,0.0,2.0,45,0.00,,,0.00,WeatherCatV1.23B16,2014-01-28 23:07:00,
2014-01-28 18:12:00,10.0,-7.1,30.45,SW,218,0.0,0.0,45,0.00,,,0.00,WeatherCatV1.23B16,2014-01-28 23:12:00,
2014-01-28 18:18:00,9.8,-7.2,30.44,West,259,0.0,2.0,45,0.00,,,0.00,WeatherCatV1.23B16,2014-01-28 23:18:00,
2014-01-28 18:23:00,9.7,-7.3,30.44,West,259,0.0,0.0,45,0.00,,,0.00,WeatherCatV1.23B16,2014-01-28 23:23:00,
2014-01-28 18:28:00,9.5,-7.1,30.44,West,259,0.0,3.0,46,0.00,,,0.00,WeatherCatV1.23B16,2014-01-28 23:28:00,
2014-01-28 18:33:00,9.5,-7.1,30.43,WNW,297,0.0,1.0,46,0.00,,,0.00,WeatherCatV1.23B16,2014-01-28 23:33:00,
2014-01-28 18:38:00,9.3,-7.2,30.43,WNW,297,0.0,1.0,46,0.00,,,0.00,WeatherCatV1.23B16,2014-01-28 23:38:00,
2014-01-28 18:44:00,9.1,-7.4,30.43,WNW,297,0.0,0.0,46,0.00,,,0.00,WeatherCatV1.23B16,2014-01-28 23:44:00,
2014-01-28 18:49:00,8.9,-7.2,30.44,WNW,297,0.0,0.0,47,0.00,,,0.00,WeatherCatV1.23B16,2014-01-28 23:49:00,
2014-01-28 18:54:00,8.8,-7.3,30.44,WNW,297,0.0,0.0,47,0.00,,,0.00,WeatherCatV1.23B16,2014-01-28 23:54:00,
2014-01-28 18:59:00,8.4,-7.6,30.44,WNW,297,0.0,0.0,47,0.00,,,0.00,WeatherCatV1.23B16,2014-01-28 23:59:00,
2014-01-28 19:04:00,8.1,-7.5,30.44,WNW,297,0.0,0.0,48,0.00,,,0.00,WeatherCatV1.23B16,2014-01-29 00:04:00,
2014-01-28 19:10:00,7.7,-7.8,30.44,WNW,297,0.0,0.0,48,0.00,,,0.00,WeatherCatV1.23B16,2014-01-29 00:10:00,
2014-01-28 19:15:00,7.4,-7.7,30.43,WNW,297,0.0,0.0,49,0.00,,,0.00,WeatherCatV1.23B16,2014-01-29 00:15:00,
2014-01-28 19:20:00,7.0,-7.7,30.43,WNW,297,0.0,0.0,50,0.00,,,0.00,WeatherCatV1.23B16,2014-01-29 00:20:00,
2014-01-28 19:25:00,6.8,-7.1,30.43,WNW,297,0.0,0.0,52,0.00,,,0.00,WeatherCatV1.23B16,2014-01-29 00:25:00,
2014-01-28 19:30:00,6.5,-6.9,30.44,WNW,297,0.0,0.0,53,0.00,,,0.00,WeatherCatV1.23B16,2014-01-29 00:30:00,
2014-01-28 19:36:00,6.3,-6.8,30.44,WNW,297,0.0,0.0,54,0.00,,,0.00,WeatherCatV1.23B16,2014-01-29 00:36:00,
2014-01-28 19:41:00,5.9,-6.8,30.44,WNW,297,0.0,0.0,55,0.00,,,0.00,WeatherCatV1.23B16,2014-01-29 00:41:00,
2014-01-28 19:47:00,5.7,-6.9,30.43,WNW,297,0.0,0.0,55,0.00,,,0.00,WeatherCatV1.23B16,2014-01-29 00:47:00,
2014-01-28 19:52:00,5.5,-7.1,30.43,WNW,297,0.0,0.0,55,0.00,,,0.00,WeatherCatV1.23B16,2014-01-29 00:52:00,
2014-01-28 19:57:00,5.2,-6.7,30.43,WNW,297,0.0,0.0,57,0.00,,,0.00,WeatherCatV1.23B16,2014-01-29 00:57:00,
2014-01-28 20:02:00,5.2,-6.7,30.43,WNW,297,0.0,0.0,57,0.00,,,0.00,WeatherCatV1.23B16,2014-01-29 01:02:00,
2014-01-28 20:07:00,5.0,-6.5,30.43,WNW,297,0.0,0.0,58,0.00,,,0.00,WeatherCatV1.23B16,2014-01-29 01:07:00,
2014-01-28 20:13:00,4.8,-6.7,30.43,WNW,297,0.0,0.0,58,0.00,,,0.00,WeatherCatV1.23B16,2014-01-29 01:13:00,
2014-01-28 20:18:00,4.8,-6.7,30.43,WNW,297,0.0,0.0,58,0.00,,,0.00,WeatherCatV1.23B16,2014-01-29 01:18:00,
2014-01-28 20:23:00,4.6,-6.9,30.43,WNW,297,0.0,0.0,58,0.00,,,0.00,WeatherCatV1.23B16,2014-01-29 01:23:00,
2014-01-28 20:28:00,4.4,-7.1,30.43,WNW,297,0.0,0.0,58,0.00,,,0.00,WeatherCatV1.23B16,2014-01-29 01:28:00,
2014-01-28 20:33:00,4.4,-6.7,30.44,WNW,297,0.0,0.0,59,0.00,,,0.00,WeatherCatV1.23B16,2014-01-29 01:33:00,
2014-01-28 20:39:00,4.2,-6.9,30.44,WNW,297,0.0,0.0,59,0.00,,,0.00,WeatherCatV1.23B16,2014-01-29 01:39:00,
2014-01-28 20:44:00,4.0,-6.8,30.44,WNW,297,0.0,0.0,60,0.00,,,0.00,WeatherCatV1.23B16,2014-01-29 01:44:00,
2014-01-28 20:49:00,3.9,-6.8,30.43,WNW,297,0.0,0.0,60,0.00,,,0.00,WeatherCatV1.23B16,2014-01-29 01:49:00,
2014-01-28 20:54:00,3.7,-6.7,30.43,WNW,297,0.0,0.0,61,0.00,,,0.00,WeatherCatV1.23B16,2014-01-29 01:54:00,
2014-01-28 20:59:00,3.5,-6.9,30.44,WNW,297,0.0,0.0,61,0.00,,,0.00,WeatherCatV1.23B16,2014-01-29 01:59:00,
2014-01-28 21:05:00,3.3,-6.8,30.44,WNW,297,0.0,0.0,62,0.00,,,0.00,WeatherCatV1.23B16,2014-01-29 02:05:00,
2014-01-28 21:10:00,3.3,-6.4,30.44,WNW,297,0.0,0.0,63,0.00,,,0.00,WeatherCatV1.23B16,2014-01-29 02:10:00,
2014-01-28 21:15:00,3.3,-6.4,30.43,WNW,297,0.0,0.0,63,0.00,,,0.00,WeatherCatV1.23B16,2014-01-29 02:15:00,
2014-01-28 21:20:00,3.1,-6.6,30.43,WNW,297,0.0,0.0,63,0.00,,,0.00,WeatherCatV1.23B16,2014-01-29 02:20:00,
2014-01-28 21:25:00,2.9,-6.8,30.43,WNW,297,0.0,0.0,63,0.00,,,0.00,WeatherCatV1.23B16,2014-01-29 02:25:00,
2014-01-28 21:31:00,2.7,-7.0,30.44,WNW,297,0.0,0.0,63,0.00,,,0.00,WeatherCatV1.23B16,2014-01-29 02:31:00,
2014-01-28 21:36:00,2.5,-7.2,30.44,WNW,297,0.0,0.0,63,0.00,,,0.00,WeatherCatV1.23B16,2014-01-29 02:36:00,
2014-01-28 21:41:00,2.3,-7.1,30.44,WNW,297,0.0,0.0,64,0.00,,,0.00,WeatherCatV1.23B16,2014-01-29 02:41:00,
2014-01-28 21:46:00,2.2,-6.8,30.45,WNW,297,0.0,0.0,65,0.00,,,0.00,WeatherCatV1.23B16,2014-01-29 02:46:00,
2014-01-28 21:51:00,2.2,-6.8,30.45,WNW,297,0.0,0.0,65,0.00,,,0.00,WeatherCatV1.23B16,2014-01-29 02:51:00,
2014-01-28 21:57:00,2.2,-6.8,30.45,WNW,297,0.0,0.0,65,0.00,,,0.00,WeatherCatV1.23B16,2014-01-29 02:57:00,
2014-01-28 22:02:00,2.0,-7.0,30.45,WNW,297,0.0,0.0,65,0.00,,,0.00,WeatherCatV1.23B16,2014-01-29 03:02:00,
2014-01-28 22:07:00,2.0,-7.0,30.45,WNW,297,0.0,0.0,65,0.00,,,0.00,WeatherCatV1.23B16,2014-01-29 03:07:00,
2014-01-28 22:12:00,2.0,-6.7,30.45,WNW,297,0.0,0.0,66,0.00,,,0.00,WeatherCatV1.23B16,2014-01-29 03:12:00,
2014-01-28 22:17:00,2.2,-6.5,30.44,WNW,297,0.0,0.0,66,0.00,,,0.00,WeatherCatV1.23B16,2014-01-29 03:17:00,
2014-01-28 22:23:00,2.2,-6.5,30.44,WNW,297,0.0,0.0,66,0.00,,,0.00,WeatherCatV1.23B16,2014-01-29 03:23:00,
2014-01-28 22:28:00,2.2,-6.2,30.44,WNW,297,0.0,0.0,67,0.00,,,0.00,WeatherCatV1.23B16,2014-01-29 03:28:00,
2014-01-28 22:33:00,2.2,-6.2,30.45,WNW,297,0.0,0.0,67,0.00,,,0.00,WeatherCatV1.23B16,2014-01-29 03:33:00,
2014-01-28 22:38:00,2.2,-6.2,30.45,WNW,297,0.0,1.0,67,0.00,,,0.00,WeatherCatV1.23B16,2014-01-29 03:38:00,
2014-01-28 22:43:00,2.2,-6.2,30.45,WNW,297,0.0,0.0,67,0.00,,,0.00,WeatherCatV1.23B16,2014-01-29 03:43:00,
2014-01-28 22:49:00,2.3,-5.8,30.44,WNW,297,0.0,0.0,68,0.00,,,0.00,WeatherCatV1.23B16,2014-01-29 03:49:00,
2014-01-28 22:54:00,2.3,-5.8,30.44,WNW,297,0.0,0.0,68,0.00,,,0.00,WeatherCatV1.23B16,2014-01-29 03:54:00,
2014-01-28 22:59:00,2.3,-5.8,30.44,WNW,297,0.0,0.0,68,0.00,,,0.00,WeatherCatV1.23B16,2014-01-29 03:59:00,
2014-01-28 23:04:00,2.3,-5.8,30.44,WNW,297,0.0,0.0,68,0.00,,,0.00,WeatherCatV1.23B16,2014-01-29 04:04:00,
2014-01-28 23:09:00,2.3,-5.8,30.44,WNW,297,0.0,0.0,68,0.00,,,0.00,WeatherCatV1.23B16,2014-01-29 04:09:00,
2014-01-28 23:15:00,2.3,-5.5,30.43,WNW,297,0.0,0.0,69,0.00,,,0.00,WeatherCatV1.23B16,2014-01-29 04:15:00,
2014-01-28 23:20:00,2.3,-5.5,30.43,WNW,297,0.0,0.0,69,0.00,,,0.00,WeatherCatV1.23B16,2014-01-29 04:20:00,
2014-01-28 23:25:00,2.3,-5.5,30.43,WNW,297,0.0,2.0,69,0.00,,,0.00,WeatherCatV1.23B16,2014-01-29 04:25:00,
2014-01-28 23:30:00,2.3,-5.5,30.43,WNW,297,0.0,0.0,69,0.00,,,0.00,WeatherCatV1.23B16,2014-01-29 04:30:00,
2014-01-28 23:35:00,2.3,-5.2,30.43,WNW,297,0.0,0.0,70,0.00,,,0.00,WeatherCatV1.23B16,2014-01-29 04:35:00,
2014-01-28 23:41:00,2.5,-5.0,30.43,WNW,297,0.0,0.0,70,0.00,,,0.00,WeatherCatV1.23B16,2014-01-29 04:41:00,
2014-01-28 23:46:00,2.5,-5.0,30.43,WNW,297,0.0,0.0,70,0.00,,,0.00,WeatherCatV1.23B16,2014-01-29 04:46:00,
2014-01-28 23:51:00,2.5,-5.0,30.43,WNW,297,0.0,0.0,70,0.00,,,0.00,WeatherCatV1.23B16,2014-01-29 04:51:00,
2014-01-28 23:56:00,2.5,-5.0,30.43,WNW,297,0.0,0.0,70,0.00,,,0.00,WeatherCatV1.23B16,2014-01-29 04:56:00,